Regional Weather Roundup
Issued by NWS Sterling, VA

Home | Current Version | Previous Version | Graphics & Text | Print | Product List | Glossary On
Versions: 1 2 3 4 5 6 7 8 9 10 11 12 13 14 15 16 17 18 19 20 21 22 23 24 25 26 27 28 29 30 31 32 33 34 35 36 37 38 39 40 41 42 43 44 45 46 47 48 49 50
000
ASUS41 KLWX 172210
RWRLWX

REGIONAL WEATHER ROUNDUP
NATIONAL WEATHER SERVICE BALTIMORE MD/WASHINGTON DC
600 PM EDT WED SEP 17 2014

Note: "FAIR" indicates few or no clouds below 12,000 feet
with no significant weather and/or obstructions to visibility.
 TC=TEMPERATURE CELSIUS

 * =Non NWS site. Station does not report precipitation (e.g. rain,
    snow, etc.), thunder, or fog.

DCZ001-MDZ009-015-VAZ040>042-051-053>054-172300-
WASHINGTON METRO

CITY           SKY/WX    TMP DP  RH WIND       PRES   REMARKS
WASHINGTON NAT PTSUNNY   77  48  35 N5        29.97S
DULLES         MOSUNNY   73  50  44 W5        29.97F
ANDREWS AFB    SUNNY     71  53  52 SE6       29.97S
QUANTICO       MOSUNNY   75  49  39 NW9       29.97S
COLLEGE PARK*  PTSUNNY   72  54  53 CALM      29.97S
LEESBURG*      SUNNY     73  52  46 CALM      29.98S
MANASSAS*      PTSUNNY   73  52  46 CALM      29.97
GAITHERSBURG*  PTSUNNY   72  48  43 W5        30.01S

$$

MDZ006>007-011-014-172300-
BALTIMORE METRO

CITY           SKY/WX    TMP DP  RH WIND       PRES   REMARKS
BWI AIRPORT    PTSUNNY   70  51  51 S3        29.97S
MD SCIENCE CTR   N/A     72  48  42 MISG      29.98R
MARTIN STATE   SUNNY     72  50  46 SE7       29.99S
ANNAPOLIS      PTSUNNY   71  50  47 E5        29.98R
FORT MEADE*    MOSUNNY   68  55  64 SE3       30.00R

$$

MDZ012-015-019>023-172300-
MARYLAND EASTERN SHORE

CITY           SKY/WX    TMP DP  RH WIND       PRES   REMARKS
OCEAN CITY     SUNNY     70  49  47 E5        29.98S
SALISBURY      SUNNY     73  50  44 SE8       29.97S
BAY BRIDGE AP*   N/A     72  45  37 NW3       29.98R
CAMBRIDGE*     SUNNY     73  48  40 CALM      29.97R
EASTON*        SUNNY     73  48  40 CALM      30.01S

$$

MDZ017>025-172300-
SOUTHERN MARYLAND

CITY           SKY/WX    TMP DP  RH WIND       PRES   REMARKS
PATUXENT RIVER MOSUNNY   71  50  47 E5        29.97R
ST INIGOES     SUNNY     72  48  42 E5        29.96S
LEONARDTOWN*   SUNNY     72  50  46 CALM      29.99S

$$

MDZ003>005-172300-
NORTH CENTRAL MARYLAND

CITY           SKY/WX    TMP DP  RH WIND       PRES   REMARKS
FREDERICK*     MOSUNNY   77  52  41 VRB5      30.00S
HAGERSTOWN APT SUNNY     71  45  39 CALM      29.97S
WESTMINSTER*   SUNNY     68  48  49 W3        29.99R

$$

MDZ501>502-172300-
WESTERN MARYLAND

CITY           SKY/WX    TMP DP  RH WIND       PRES   REMARKS
OAKLAND*       NOT AVBL
CUMBERLAND*    MOSUNNY   73  45  35 CALM      30.00S

$$

VAZ025>031-172300-
SHENANDOAH VALLEY

CITY           SKY/WX    TMP DP  RH WIND       PRES   REMARKS
WINCHESTER*    SUNNY     72  50  46 E8        29.97S
STAUNTON*      SUNNY     71  49  46 S5        29.99F

$$

WVZ021-048>050-054>055-172300-
EASTERN WEST VIRGINIA PANHANDLE

CITY           SKY/WX    TMP DP  RH WIND       PRES   REMARKS
MARTINSBURG    SUNNY     72  46  39 SE5       29.97F
PETERSBURG*    PTSUNNY   73  46  37 CALM      29.96S

$$

VAZ036>039-050-172300-
CENTRAL FOOTHILLS

CITY           SKY/WX    TMP DP  RH WIND       PRES   REMARKS
CHARLOTTESVILL MOSUNNY   74  52  46 S3        29.96F
ORANGE*        PTSUNNY   73  50  43 CALM      29.98S

$$

VAZ055>057-172300-
NORTH AND CENTRAL PIEDMONT

CITY           SKY/WX    TMP DP  RH WIND       PRES   REMARKS
FREDERICKSBRG* PTSUNNY   75  53  46 E5        29.96S
STAFFORD*      SUNNY     74  53  48 CALM      30.00S

$$

NCZ024-NYZ072-PAZ021-071-VAZ022-071-172300-
OTHER REGIONAL OBSERVATIONS

CITY           SKY/WX    TMP DP  RH WIND       PRES   REMARKS
NEW YORK CITY  SUNNY     69  43  38 VRB5      29.99R
PHILADELPHIA   MOSUNNY   73  46  38 SW10      29.97S
PITTSBURGH     PTSUNNY   66  47  50 W5        29.98S
ROANOKE        MOSUNNY   70  54  56 SE8       29.99F
RICHMOND       PTSUNNY   75  56  51 E5        29.96R
RALEIGH        MOSUNNY   76  63  64 NE9       29.92F

$$

ANZ530>537-172300-
MARINE OBSERVATIONS

STATION/POSITION TIME  TEMP    WIND        PRES
                       AIR SEA DIR/SP/G
                 (UTC) (F)     (DEG/KT/KT) (MB)
THOMAS PT LIGHT  2200   72 75   CALM  /  5 1016.0R
BALT KEY BRIDGE  2200   71     110/  7/  9 1014.7S
COVE POINT       2200   71      30/  4/  5 1014.7R
LEWISETTA        2200   72 76  110/  4/  5 1014.4R
SOLOMONS ISLAND  2200      77                N/A
PINEY POINT      2200          150/  6/  8   N/A

$$




USA.gov is the U.S. government's official web portal to all federal, state and local government web resources and services.